Location: Unspecified
(51.0950°N, 12.9690°E)
Time: 15:31:52
(UTC+00:00)

USA 229 - Pass Details

Date: 28 October 2021
Orbit: 946 x 1266 km, 63.4° (Epoch: 25 November)

Event Time Altitude Azimuth Distance (km) Brightness Sun altitude
Rises 16:18:07 0° 191° (S) 3,631 6.9 -5.2°
Reaches altitude 10° 16:20:47 10° 183° (S) 2,714 6.1 -5.6°
Maximum altitude 16:26:32 38° 118° (ESE) 1,505 4.2 -6.4°
Drops below altitude 10° 16:32:41 10° 53° (NE) 2,899 5.4 -7.4°
Enters shadow 16:34:19 - 49° (NE) 3,461 5.8 -7.6°
